Tracking 22881 objects as of 19-Apr-2021
HD Live streaming from Space Station
objects crossing your sky now

CZ-4 R/B

Track CZ-4 R/B now!
10-day predictions
CZ-4 R/B is classified as:


NORAD ID: 29507
Int'l Code: 2006-046C
Perigee: 539.3 km
Apogee: 604.0 km
Inclination: 97.7 °
Period: 96.0 minutes
Semi major axis: 6942 km
RCS: 4.43 m2 (large)
Launch date: October 23, 2006
Source: People's Republic of China (PRC)
Launch site: Taiyaun Space Center, China (TSC)

Note: This is a ROCKET BODY
aabbcc
Your satellite tracking list
Your tracking list is empty




NASA's NSSDC Master Catalog

Two Line Element Set (TLE):
1 29507U 06046C   21109.35350705  .00001212  00000-0  98294-4 0  9992
2 29507  97.7283 135.5510 0046644 214.2145 145.6071 15.00777336791295
Source of the keplerian elements: AFSPC